Location: Bovenkerk
(52.2915°N, 4.8336°E)
Time: 13:47:31
(UTC+00:00)

BREEZE M DEB (TANK) - Pass Details

Date: 09 April 2020
Orbit: 313 x 13666 km, 49.6° (Epoch: 23 May)

Event Time Altitude Azimuth Distance (km) Brightness Sun altitude
Rises 20:40:20 0° 249° (WSW) 5,587 8.3 -18.4°
Reaches altitude 10° 20:45:32 10° 246° (WSW) 3,226 7.0 -18.9°
Maximum altitude 20:51:29 49° 173° (S) 719 3.0 -19.6°
Enters shadow 20:51:30 49° 172° (S) 718 3.0 -19.6°
